PBO Station Position Time Series. Reference Frame : NAM14
Format Version,1.1.1
4-character ID,P416
Station name,Suntop_LO_WA2008
Begin Date, 2008-07-27
End Date, 2023-06-26
Release Date, 2023-06-27
Reference position, 47.0399420930 North Latitude, -121.5969285307 East Longitude, 1576.52217 meters elevation,
Date, North (mm), East (mm), Vertical (mm), North Std. Deviation (mm), East Std. Deviation (mm),              Vertical Std. Deviation (mm), Quality,
2008-07-27,0.00, 0.00, 0.00, 2.25, 1.52, 6.91, repro,
2008-07-28,0.55, -0.57, 6.73, 2.34, 1.57, 7.08, repro,
2008-07-29,2.01, -1.48, 6.60, 2.30, 1.55, 7.12, repro,
2008-07-30,0.61, -0.37, 7.48, 2.33, 1.55, 7.19, repro,
2008-07-31,2.14, -0.65, 9.35, 2.26, 1.51, 6.93, repro,
2008-08-01,3.10, 0.73, 20.25, 2.23, 1.51, 6.87, repro,
2008-08-02,0.90, -1.34, 8.68, 2.23, 1.52, 6.87, repro,
2008-08-03,1.30, -1.31, 6.66, 2.26, 1.56, 7.07, repro,
2008-08-04,1.61, -1.22, 6.79, 2.23, 1.52, 6.90, repro,
2008-08-05,1.61, -0.43, 7.93, 2.25, 1.51, 6.88, repro,
2008-08-06,1.01, -1.04, 8.78, 2.30, 1.53, 6.96, repro,
2008-08-07,1.00, -2.90, 15.11, 2.41, 1.62, 7.42, repro,
2008-08-08,0.30, -0.43, 14.75, 2.34, 1.58, 7.17, repro,
2008-08-09,0.37, 0.13, 6.29, 2.29, 1.54, 7.01, repro,
2008-08-10,0.10, -1.07, -4.24, 2.30, 1.53, 7.01, repro,
2008-08-11,0.51, -0.43, 6.15, 2.31, 1.53, 7.02, repro,
2008-08-12,1.73, -1.54, 1.75, 2.30, 1.53, 7.00, repro,
2008-08-13,0.15, -1.18, 6.86, 2.29, 1.54, 7.00, repro,
2008-08-14,1.15, -0.34, 1.55, 2.30, 1.53, 6.98, repro,
2008-08-15,0.19, -1.26, 6.42, 2.28, 1.54, 7.00, repro,
2008-08-16,-0.72, -0.77, 10.11, 2.31, 1.54, 7.00, repro,
2008-08-17,-0.34, -1.59, 15.81, 2.31, 1.53, 7.02, repro,
2008-08-18,-0.03, -2.05, 13.29, 2.30, 1.53, 7.01, repro,
2008-08-19,0.39, -2.36, 10.69, 2.30, 1.53, 6.97, repro,
2008-08-20,-0.67, 0.81, 14.65, 2.32, 1.54, 7.05, repro,
2008-08-21,-1.06, 0.11, 17.35, 2.33, 1.54, 7.05, repro,
2008-08-22,0.16, -1.70, 6.59, 2.32, 1.54, 7.02, repro,
2008-08-23,-0.11, -1.55, 2.90, 2.31, 1.52, 6.95, repro,
2008-08-24,2.13, -0.51, 7.38, 2.32, 1.56, 7.09, repro,
2008-08-25,2.41, -2.66, 1.53, 2.29, 1.53, 6.93, repro,
2008-08-26,-0.30, -1.04, 6.37, 2.30, 1.53, 6.98, repro,
2008-08-27,-1.00, -1.15, 14.36, 2.40, 1.60, 7.25, repro,
2008-08-28,0.21, -1.41, 5.04, 2.49, 1.65, 7.45, repro,
2008-08-29,0.54, -1.17, 3.77, 2.33, 1.56, 7.07, repro,
2008-08-30,0.64, -0.20, 9.60, 2.31, 1.54, 7.00, repro,
2008-08-31,-0.41, -0.16, 3.14, 2.31, 1.55, 7.05, repro,
2008-09-01,0.29, -1.71, -3.59, 2.33, 1.56, 7.09, repro,
2008-09-02,0.05, -1.30, 0.21, 2.33, 1.56, 7.10, repro,
2008-09-03,0.39, -0.43, -1.29, 2.36, 1.62, 7.22, repro,
2008-09-04,0.32, -1.16, 2.96, 2.47, 1.65, 7.60, repro,
2008-09-05,1.34, -0.86, 3.94, 2.39, 1.60, 7.24, repro,
2008-09-06,0.09, -0.51, 5.83, 2.32, 1.56, 7.08, repro,
2008-09-07,0.15, -1.27, 5.24, 2.32, 1.55, 7.09, repro,
2008-09-08,-0.26, -0.96, 4.40, 2.33, 1.56, 7.10, repro,
2008-09-09,1.48, -0.77, 8.93, 2.38, 1.56, 7.13, repro,
2008-09-10,0.25, -1.59, 1.15, 2.35, 1.59, 7.15, repro,
2008-09-11,-0.51, -0.73, 8.75, 2.42, 1.65, 7.38, repro,
2008-09-12,0.24, -2.61, 16.35, 2.30, 1.55, 7.03, repro,
2008-09-13,-0.50, 0.43, 6.46, 2.31, 1.54, 7.02, repro,
2008-09-14,0.98, -0.19, 6.14, 2.38, 1.60, 7.26, repro,
2008-09-15,-0.40, 0.29, 7.66, 2.32, 1.55, 7.06, repro,
2008-09-16,0.66, -0.73, 7.31, 2.33, 1.59, 7.21, repro,
2008-09-17,0.96, 0.02, 6.54, 2.39, 1.59, 7.24, repro,
2008-09-18,0.26, -1.07, 6.83, 2.29, 1.52, 6.94, repro,
2008-09-19,-0.12, -1.01, 4.42, 2.29, 1.52, 6.94, repro,
2008-09-20,0.34, -0.84, 5.35, 2.29, 1.53, 6.97, repro,
2008-09-21,1.36, -0.39, 0.25, 2.35, 1.58, 7.18, repro,
2008-09-22,1.03, -1.14, 2.18, 2.32, 1.54, 7.05, repro,
2008-09-23,0.38, -0.52, 7.15, 2.29, 1.52, 6.94, repro,
2008-09-24,0.73, -0.18, 6.16, 2.33, 1.56, 7.07, repro,
2008-09-25,0.73, -0.14, 4.89, 2.32, 1.53, 7.04, repro,
2008-09-26,0.45, -0.34, 1.75, 2.30, 1.54, 7.00, repro,
2008-09-27,-0.47, -1.13, 3.08, 2.35, 1.58, 7.11, repro,
2008-09-28,0.55, -0.21, 0.51, 2.33, 1.56, 7.01, repro,
2008-09-29,0.40, 0.69, 1.15, 2.33, 1.56, 7.02, repro,
2008-09-30,-0.24, -0.70, 4.57, 2.31, 1.52, 6.96, repro,
2008-10-01,-0.22, -0.50, 3.49, 2.31, 1.52, 6.97, repro,
2008-10-02,-0.64, 1.28, 11.89, 2.43, 1.64, 7.39, repro,
2008-10-03,-1.28, -1.18, 15.64, 2.36, 1.57, 7.10, repro,
2008-10-04,1.21, 0.05, 14.16, 2.29, 1.53, 6.94, repro,
2008-10-05,0.14, -2.12, 5.82, 2.30, 1.53, 6.94, repro,
2008-10-06,0.87, -0.44, -2.94, 2.31, 1.52, 6.94, repro,
2008-10-07,1.29, -0.38, -7.09, 2.33, 1.54, 6.98, repro,
2008-10-08,-1.09, -1.50, 3.83, 2.33, 1.55, 7.06, repro,
2008-10-09,-0.41, -0.08, -0.15, 2.24, 1.51, 6.86, repro,
2008-10-10,0.12, 0.26, -3.79, 2.24, 1.50, 6.83, repro,
2008-10-11,-0.43, 0.03, -0.87, 2.26, 1.51, 6.87, repro,
2008-10-12,-0.55, -0.33, -1.32, 2.25, 1.52, 6.90, repro,
2008-10-13,-1.58, -0.59, 1.19, 2.24, 1.51, 6.89, repro,
2008-10-14,0.49, 0.46, -5.49, 2.25, 1.52, 6.93, repro,
2008-10-15,0.23, -0.33, 1.24, 2.37, 1.56, 7.17, repro,
2008-10-16,0.38, -0.67, -5.54, 2.33, 1.54, 7.06, repro,
2008-10-17,1.05, -1.27, -0.71, 2.27, 1.52, 6.96, repro,
2008-10-18,0.63, -0.49, 6.19, 2.24, 1.51, 6.89, repro,
2008-10-19,-0.23, -0.92, 2.09, 2.24, 1.52, 6.95, repro,
2008-10-20,-2.40, 0.31, 6.01, 2.24, 1.53, 6.95, repro,
2008-10-21,-0.20, 0.63, -0.44, 2.25, 1.51, 6.90, repro,
2008-10-22,-0.29, 0.40, -1.27, 2.26, 1.51, 6.92, repro,
2008-10-23,-1.42, 0.74, 2.34, 2.25, 1.52, 6.90, repro,
2008-10-24,-0.90, -0.22, 7.59, 2.23, 1.52, 6.96, repro,
2008-10-25,-2.04, -1.42, 6.77, 2.24, 1.52, 6.97, repro,
2008-10-26,-0.31, -0.47, -2.52, 2.24, 1.51, 6.91, repro,
2008-10-27,0.32, 0.49, -4.10, 2.24, 1.50, 6.87, repro,
2008-10-28,0.84, 0.33, -2.70, 2.35, 1.54, 6.98, repro,
2008-10-29,-0.22, -1.30, 1.86, 2.36, 1.54, 7.02, repro,
2008-10-30,-0.52, -1.94, 11.04, 2.23, 1.53, 6.95, repro,
2008-10-31,2.13, -0.05, 2.82, 2.34, 1.59, 7.27, repro,
2008-11-01,2.25, -1.28, 1.88, 2.28, 1.54, 7.05, repro,
2008-11-02,0.86, -1.29, 8.31, 2.30, 1.57, 7.18, repro,
2008-11-03,1.27, -0.42, 5.81, 2.30, 1.55, 7.09, repro,
2008-11-04,0.81, -2.24, 12.94, 2.27, 1.55, 7.08, repro,
2008-11-05,0.65, -2.22, 11.39, 2.25, 1.54, 6.98, repro,
2008-11-06,0.70, 0.93, 0.97, 2.29, 1.58, 7.18, repro,
2008-11-07,-0.46, 3.99, -0.30, 2.28, 1.54, 6.99, repro,
2008-11-08,-1.13, -1.89, 2.21, 2.30, 1.57, 7.15, repro,
2008-11-09,-1.92, -0.56, 0.21, 2.28, 1.56, 7.14, repro,
2008-11-10,0.83, -1.21, 2.20, 2.25, 1.57, 7.06, repro,
2008-11-11,-0.38, -0.37, 2.54, 2.35, 1.67, 7.58, repro,
2008-11-12,-3.26, -0.81, -2.01, 2.28, 1.56, 7.06, repro,
2008-11-13,-0.77, -0.35, -0.42, 2.32, 1.59, 7.21, repro,
2008-11-14,-1.06, -0.58, -0.92, 2.36, 1.67, 7.46, repro,
2008-11-15,-2.23, 0.32, -7.90, 2.34, 1.60, 7.29, repro,
2008-11-16,-0.31, -0.14, -4.78, 2.29, 1.63, 7.32, repro,
2008-11-17,-0.70, 0.99, -3.41, 2.33, 1.62, 7.26, repro,
2008-11-18,-0.43, -0.21, -3.73, 2.36, 1.72, 7.75, repro,
2008-11-19,0.24, 0.56, -9.67, 2.36, 1.64, 7.43, repro,
2008-11-20,0.64, -0.28, -8.36, 2.32, 1.61, 7.26, repro,
2008-11-21,-0.63, 0.06, -2.74, 2.42, 1.74, 7.85, repro,
2008-11-22,0.14, -0.50, 7.57, 2.34, 1.67, 7.51, repro,
2008-11-23,-0.68, -0.17, -5.22, 2.38, 1.64, 7.38, repro,
2008-11-24,-0.61, 0.58, -0.83, 2.42, 1.69, 7.60, repro,
2008-11-25,-1.87, 0.81, -2.39, 2.33, 1.66, 7.42, repro,
2008-11-26,0.37, -0.22, -4.55, 2.25, 1.54, 6.98, repro,
2008-11-27,0.08, 0.30, -5.50, 2.29, 1.62, 7.30, repro,
2008-11-28,-1.19, -0.46, -3.14, 2.31, 1.64, 7.29, repro,
2008-11-29,-2.01, -0.48, -1.56, 2.40, 1.73, 7.75, repro,
2008-11-30,-1.04, 0.62, -0.88, 2.26, 1.56, 7.04, repro,
2008-12-01,-1.32, 0.88, 5.91, 2.24, 1.53, 6.93, repro,
2008-12-02,-0.37, -0.34, -2.89, 2.32, 1.62, 7.23, repro,
2008-12-03,0.78, 0.19, -4.92, 2.30, 1.61, 7.13, repro,
2008-12-04,0.38, 1.25, -4.64, 2.39, 1.75, 7.84, repro,
2008-12-05,-0.56, 0.26, -4.28, 2.30, 1.61, 7.17, repro,
2008-12-06,0.45, 0.91, -1.02, 2.39, 1.76, 7.84, repro,
2008-12-07,-2.27, 0.50, 1.89, 2.38, 1.76, 7.81, repro,
2008-12-08,-0.24, -1.95, -5.86, 2.27, 1.62, 7.26, repro,
2008-12-09,0.15, -1.40, -8.69, 2.28, 1.58, 7.08, repro,
2008-12-10,-3.07, -0.45, -2.47, 2.30, 1.57, 7.08, repro,
2008-12-11,0.27, -0.15, -6.37, 2.38, 1.61, 7.28, repro,
2008-12-12,0.52, 0.55, 4.41, 2.45, 1.81, 8.12, repro,
2008-12-13,0.40, -0.79, 2.07, 2.32, 1.65, 7.36, repro,
2008-12-14,1.02, -1.21, 0.74, 2.24, 1.52, 6.91, repro,
2008-12-15,-0.57, -0.38, -1.23, 2.24, 1.54, 6.99, repro,
2008-12-16,-1.14, -1.21, 0.41, 2.23, 1.50, 6.87, repro,
2008-12-17,-0.44, -0.96, -1.96, 2.29, 1.52, 6.97, repro,
2008-12-18,0.00, -0.64, 0.74, 2.21, 1.51, 6.85, repro,
2008-12-19,0.93, -0.96, -6.85, 2.30, 1.54, 7.12, repro,
2008-12-20,0.59, -0.69, -9.86, 2.27, 1.57, 7.13, repro,
2008-12-21,0.35, -0.23, -3.46, 2.23, 1.50, 6.88, repro,
2008-12-22,0.56, -1.16, 1.79, 2.24, 1.51, 6.91, repro,
2008-12-23,-0.19, -0.75, 0.16, 2.27, 1.54, 6.99, repro,
2008-12-24,-1.60, -0.36, 6.65, 2.32, 1.60, 7.15, repro,
2008-12-25,-0.34, -2.00, 14.08, 2.29, 1.57, 7.12, repro,
2008-12-26,0.17, -1.37, 5.96, 2.24, 1.52, 6.93, repro,
2008-12-27,-0.41, 0.53, 4.01, 2.24, 1.51, 6.89, repro,
2008-12-28,-3.37, -1.72, -2.63, 2.24, 1.52, 6.91, repro,
2008-12-29,-2.54, -0.82, -8.80, 2.22, 1.52, 6.94, repro,
2008-12-30,-2.97, -0.15, -5.35, 2.22, 1.52, 6.92, repro,
2008-12-31,-2.27, -0.75, -5.92, 2.23, 1.52, 6.95, repro,
2009-01-01,-2.25, -0.65, -2.70, 2.24, 1.51, 6.92, repro,
2009-01-02,-1.23, -0.73, -4.04, 2.33, 1.54, 6.97, repro,
2009-01-03,-1.16, 0.21, -6.85, 2.29, 1.57, 7.05, repro,
2009-01-04,-1.02, 0.14, -10.67, 2.40, 1.59, 7.12, repro,
2009-01-05,-0.48, 0.07, 0.33, 2.23, 1.53, 6.96, repro,
2009-01-06,-1.30, -1.23, -4.16, 2.22, 1.52, 6.93, repro,
2009-01-07,-3.10, -0.65, -14.06, 2.24, 1.51, 6.91, repro,
2009-01-08,-2.41, -0.58, -5.02, 2.28, 1.56, 7.08, repro,
2009-01-09,-1.41, 0.80, -15.79, 2.27, 1.56, 7.11, repro,
2009-01-10,-0.61, 0.70, -14.16, 2.21, 1.52, 6.93, repro,
2009-01-11,-1.05, 0.17, -16.54, 2.23, 1.53, 6.96, repro,
2009-01-12,-2.07, 2.10, -19.90, 2.23, 1.53, 6.95, repro,
2009-01-13,-0.33, 1.78, -16.55, 2.33, 1.55, 7.01, repro,
2009-01-14,0.05, 2.67, -17.54, 2.32, 1.55, 7.01, repro,
2009-01-15,0.36, 2.16, -16.64, 2.22, 1.52, 6.92, repro,
2009-01-16,0.22, 2.10, -14.61, 2.21, 1.53, 6.92, repro,
2009-01-17,0.33, 1.97, -15.51, 2.21, 1.53, 6.94, repro,
2009-01-18,1.40, 0.84, -14.73, 2.28, 1.58, 7.13, repro,
2009-01-19,0.68, 1.12, -12.26, 2.23, 1.52, 6.92, repro,
2009-01-20,-0.20, 2.50, -11.37, 2.22, 1.52, 6.94, repro,
2009-01-21,-0.74, 2.00, -9.15, 2.21, 1.53, 6.96, repro,
2009-01-22,-0.39, 1.38, -4.54, 2.21, 1.53, 6.96, repro,
2009-01-23,-1.00, 1.91, -9.62, 2.24, 1.56, 7.14, repro,
2009-01-24,0.16, 1.42, -8.18, 2.23, 1.53, 6.97, repro,
2009-01-25,-1.01, 0.98, -12.14, 2.22, 1.52, 6.91, repro,
2009-01-26,-1.95, 1.80, -11.73, 2.22, 1.53, 6.94, repro,
2009-01-27,-0.11, 2.52, -3.49, 2.20, 1.52, 6.91, repro,
2009-01-28,-0.10, 0.91, -8.44, 2.19, 1.52, 6.91, repro,
2009-01-29,-0.88, 1.51, -8.59, 2.22, 1.54, 7.00, repro,
2009-01-30,-0.82, 1.42, -8.60, 2.31, 1.59, 7.19, repro,
2009-01-31,-1.10, 0.55, -5.21, 2.23, 1.54, 6.98, repro,
2009-02-01,-0.32, 1.57, -11.34, 2.25, 1.58, 7.05, repro,
2009-02-02,-1.08, 1.46, -4.23, 2.20, 1.53, 6.93, repro,
2009-02-03,0.93, 1.28, -10.71, 2.31, 1.63, 7.27, repro,
2009-02-04,1.10, 2.68, -11.93, 2.26, 1.56, 7.07, repro,
2009-02-05,0.38, 1.63, -6.68, 2.26, 1.56, 7.05, repro,
2009-02-06,-0.03, 0.76, -2.05, 2.41, 1.67, 7.51, repro,
2009-02-07,-0.75, 1.11, -5.07, 2.24, 1.57, 7.07, repro,
2009-02-08,-0.50, 1.47, -3.39, 2.30, 1.62, 7.23, repro,
2009-02-09,-0.86, -0.23, -0.76, 2.23, 1.56, 7.01, repro,
2009-02-10,-0.22, -0.35, -2.64, 2.21, 1.52, 6.86, repro,
2009-02-11,-0.49, 0.46, -6.64, 2.30, 1.61, 7.25, repro,
2009-02-12,-0.67, -0.24, -4.35, 2.27, 1.58, 7.18, repro,
2009-02-13,-0.91, 0.10, -1.58, 2.22, 1.56, 7.03, repro,
2009-02-14,-0.35, -0.37, -8.13, 2.19, 1.52, 6.90, repro,
2009-02-15,-1.67, -1.49, -3.92, 2.27, 1.59, 7.20, repro,
2009-02-16,-1.08, 0.24, 0.28, 2.26, 1.57, 7.08, repro,
2009-02-17,-0.76, -0.32, 2.65, 2.27, 1.55, 7.06, repro,
2009-02-18,-0.74, 0.47, -7.11, 2.25, 1.60, 7.21, repro,
2009-02-19,-0.50, 0.52, -10.00, 2.26, 1.61, 7.28, repro,
2009-02-20,-0.71, 0.63, -10.08, 2.23, 1.56, 7.11, repro,
2009-02-21,-0.95, 0.91, -11.08, 2.29, 1.60, 7.25, repro,
2009-02-22,4.23, 1.10, -5.07, 2.23, 1.54, 7.02, repro,
2009-02-23,0.99, 0.07, -7.25, 2.25, 1.57, 7.11, repro,
2009-02-24,-1.21, 1.06, -3.99, 2.31, 1.69, 7.44, repro,
2009-02-25,-1.01, 0.46, -6.29, 158.30, 191.09, 363.94, repro,
2009-02-26,0.28, -0.54, -6.13, 2.24, 1.57, 7.06, repro,
2009-02-27,0.19, -0.34, -12.11, 2.41, 1.66, 7.61, repro,
2009-02-28,1.07, 0.84, -12.90, 2.24, 1.58, 7.18, repro,
2009-03-01,2.61, 0.83, -4.93, 2.31, 1.68, 7.44, repro,
2009-03-02,-1.37, 2.65, -6.27, 2.26, 1.62, 7.27, repro,
2009-03-03,1.74, -0.99, -3.04, 2.28, 1.62, 7.30, repro,
2009-03-04,-1.32, 0.19, -0.32, 2.21, 1.53, 6.96, repro,
2009-03-05,-0.70, 1.33, -3.00, 2.23, 1.57, 7.13, repro,
2009-03-06,-0.55, 0.78, -3.65, 2.26, 1.63, 7.30, repro,
2009-03-07,0.01, 1.30, -5.26, 2.16, 1.53, 6.84, repro,
2009-03-08,0.11, 1.49, -6.92, 2.20, 1.55, 7.02, repro,
2009-03-09,1.02, 1.21, -10.05, 2.23, 1.57, 7.11, repro,
2009-03-10,0.03, 0.89, -10.71, 2.28, 1.62, 7.28, repro,
2009-03-11,0.16, 1.59, -10.84, 2.27, 1.58, 7.11, repro,
2009-03-12,-0.01, 1.15, -13.83, 2.29, 1.62, 7.28, repro,
2009-03-13,-0.36, 1.17, -8.95, 2.30, 1.68, 7.35, repro,
2009-03-14,-1.49, 2.01, 1.19, 2.24, 1.59, 7.05, repro,
2009-03-15,0.77, -0.33, 1.04, 2.20, 1.53, 6.93, repro,
2009-03-16,-0.36, 1.74, -14.32, 2.28, 1.59, 7.15, repro,
2009-03-17,0.10, 1.04, -7.02, 2.30, 1.57, 7.06, repro,
2009-03-18,-0.79, 1.38, -13.45, 2.28, 1.56, 6.97, repro,
2009-03-19,-0.78, 1.31, -12.14, 2.24, 1.57, 7.05, repro,
2009-03-20,-0.91, -0.62, 0.38, 2.37, 1.67, 7.48, repro,
2009-03-21,0.11, 1.34, -4.70, 2.21, 1.54, 6.93, repro,
2009-03-22,-1.69, 1.18, -8.78, 2.43, 1.64, 7.28, repro,
2009-03-23,0.28, 1.63, -12.20, 2.38, 1.61, 7.17, repro,
2009-03-24,-0.56, 0.50, -9.77, 2.28, 1.60, 7.19, repro,
2009-03-25,-0.54, -0.37, -8.72, 2.19, 1.54, 6.93, repro,
2009-03-26,0.05, 0.39, -10.28, 2.27, 1.57, 7.07, repro,
2009-03-27,-0.90, 0.91, -3.83, 2.37, 1.63, 7.29, repro,
2009-03-28,-1.41, 0.08, -7.53, 2.27, 1.60, 7.21, repro,
2009-03-29,0.54, 0.82, -4.01, 2.32, 1.63, 7.35, repro,
2009-03-30,-1.71, 0.37, -11.00, 2.23, 1.55, 7.00, repro,
2009-03-31,-0.84, -0.15, -9.84, 2.23, 1.55, 6.96, repro,
2009-04-01,-0.67, -0.62, -3.67, 2.30, 1.58, 7.13, repro,
2009-04-02,-1.09, 0.19, -7.03, 2.29, 1.59, 7.19, repro,
2009-04-03,-0.31, -0.17, -10.42, 2.30, 1.60, 7.26, repro,
2009-04-04,-0.53, 0.70, -12.78, 2.30, 1.60, 7.19, repro,
2009-04-05,-1.51, 1.33, -22.28, 2.24, 1.56, 7.00, repro,
2009-04-06,-0.37, 1.79, -15.66, 2.26, 1.55, 6.97, repro,
2009-04-07,-1.01, 1.19, -9.93, 2.29, 1.58, 7.12, repro,
2009-04-08,0.08, 0.77, -8.97, 2.37, 1.63, 7.34, repro,
2009-04-09,0.21, 1.01, -10.44, 2.54, 1.70, 7.64, repro,
2009-04-10,-1.18, 1.34, -16.80, 2.35, 1.62, 7.31, repro,
2009-04-11,-1.85, 0.50, -7.04, 2.27, 1.54, 7.02, repro,
2009-04-12,-0.54, 1.28, -11.38, 2.26, 1.54, 6.98, repro,
2009-04-13,-2.04, 0.56, -4.94, 2.29, 1.59, 7.17, repro,
2009-04-14,-0.58, 0.90, -13.98, 2.26, 1.55, 7.05, repro,
2009-04-15,-0.19, 1.30, -13.32, 2.33, 1.56, 7.25, repro,
2009-04-16,0.30, 1.07, -16.11, 2.36, 1.62, 7.36, repro,
2009-04-17,-0.46, 1.99, -12.81, 2.30, 1.57, 7.14, repro,
2009-04-18,-1.89, 1.65, -5.29, 2.34, 1.56, 7.25, repro,
2009-04-19,-2.07, 2.04, -12.83, 2.25, 1.54, 7.01, repro,
2009-04-20,-0.31, 1.30, -12.18, 2.33, 1.57, 7.25, repro,
2009-04-21,-0.26, 1.49, -12.26, 2.28, 1.56, 7.13, repro,
2009-04-22,1.39, 3.29, -4.46, 2.28, 1.55, 7.08, repro,
2009-04-23,-0.54, 1.94, -5.92, 2.41, 1.60, 7.28, repro,
2009-04-24,-0.32, 1.28, -6.48, 2.32, 1.57, 7.12, repro,
2009-04-25,-0.80, 1.51, -8.68, 2.26, 1.54, 6.99, repro,
2009-04-26,-0.59, 0.96, -13.58, 2.27, 1.54, 7.03, repro,
2009-04-27,-0.29, 1.43, -11.53, 2.26, 1.54, 7.00, repro,
2009-04-28,-0.63, 0.80, -7.99, 2.30, 1.56, 7.12, repro,
2009-04-29,-0.55, 1.30, -6.64, 2.35, 1.63, 7.34, repro,
2009-04-30,-0.57, 2.09, -11.56, 2.30, 1.59, 7.10, repro,
2009-05-01,1.18, 0.40, -16.50, 2.25, 1.53, 6.96, repro,
2009-05-02,0.27, 1.08, -4.63, 2.25, 1.53, 6.97, repro,
2009-05-03,0.15, 0.14, -6.49, 2.28, 1.53, 7.00, repro,
2009-05-04,0.51, 0.70, -1.38, 2.29, 1.55, 7.04, repro,
2009-05-05,2.96, 1.49, 4.72, 2.28, 1.54, 7.04, repro,
2009-05-06,0.40, 1.49, -8.05, 2.25, 1.52, 6.91, repro,
2009-05-07,-0.80, 0.44, -10.65, 2.24, 1.52, 6.91, repro,
2009-05-08,0.08, 1.52, -13.52, 2.32, 1.55, 7.01, repro,
2009-05-09,0.66, 2.33, -8.92, 2.26, 1.52, 6.95, repro,
2009-05-10,-0.29, 1.07, -13.91, 2.26, 1.53, 6.95, repro,
2009-05-11,-0.27, -2.52, -5.37, 2.25, 1.53, 6.93, repro,
2009-05-12,-0.48, -0.06, -4.54, 2.40, 1.69, 7.49, repro,
2009-05-13,0.56, 0.43, -8.83, 2.27, 1.56, 7.03, repro,
2009-05-14,1.63, 1.48, -9.76, 2.25, 1.53, 6.96, repro,
2009-05-15,1.27, 1.19, -7.54, 2.31, 1.57, 7.10, repro,
2009-05-16,1.01, 0.62, -8.87, 2.24, 1.53, 6.92, repro,
2009-05-17,2.43, 1.02, -12.92, 2.24, 1.54, 6.96, repro,
2009-05-18,0.59, -0.49, -7.14, 2.25, 1.53, 6.95, repro,
2009-05-19,0.21, -0.35, 0.91, 2.28, 1.56, 7.12, repro,
2009-05-20,-0.31, -0.57, -2.36, 2.26, 1.53, 6.99, repro,
2009-05-21,1.02, -0.53, -9.38, 2.28, 1.53, 7.00, repro,
2009-05-22,0.20, 0.68, -7.30, 2.30, 1.56, 7.10, repro,
2009-05-23,0.58, 0.57, -8.50, 2.27, 1.54, 7.03, repro,
2009-05-24,0.63, 0.49, -6.09, 2.34, 1.61, 7.30, repro,
2009-05-25,1.17, 0.65, -6.00, 2.30, 1.57, 7.13, repro,
2009-05-26,1.05, -0.51, 0.46, 2.26, 1.53, 7.02, repro,
2009-05-27,0.32, -0.07, 0.70, 2.32, 1.56, 7.17, repro,
2009-05-28,1.05, -0.22, -2.17, 2.31, 1.57, 7.23, repro,
2009-05-29,0.79, -0.18, -4.26, 2.27, 1.55, 7.12, repro,
2009-05-30,3.20, -0.03, -8.99, 2.24, 1.53, 7.01, repro,
2009-05-31,2.45, 0.26, -6.22, 2.24, 1.52, 7.01, repro,
2009-06-01,1.66, -0.28, -0.31, 2.36, 1.59, 7.31, repro,
2009-06-02,2.99, -0.82, -4.23, 2.25, 1.53, 7.05, repro,
2009-06-03,2.68, 0.28, -5.06, 2.25, 1.53, 7.04, repro,
2009-06-04,1.79, -0.83, -3.04, 2.27, 1.55, 7.10, repro,
2009-06-05,3.34, -0.52, 1.10, 2.26, 1.53, 7.04, repro,
2009-06-06,0.85, -0.91, 1.53, 2.35, 1.60, 7.30, repro,
2009-06-07,2.75, -0.12, -3.60, 2.41, 1.65, 7.47, repro,
2009-06-08,3.71, -0.46, -0.69, 2.32, 1.56, 7.18, repro,
2009-06-09,3.02, -1.44, 7.16, 2.25, 1.53, 7.05, repro,
2009-06-10,2.03, -0.71, 6.95, 2.25, 1.53, 6.99, repro,
2009-06-11,3.92, -0.98, -0.40, 2.26, 1.53, 7.02, repro,
2009-06-12,1.35, -0.33, 2.47, 2.26, 1.53, 7.02, repro,
2009-06-13,2.45, 1.44, 3.11, 2.25, 1.53, 7.02, repro,
2009-06-14,3.30, -0.53, 0.74, 2.29, 1.58, 7.18, repro,
2009-06-15,1.92, 0.01, 2.18, 2.27, 1.56, 7.10, repro,
2009-06-16,1.90, -1.16, 2.34, 2.24, 1.53, 6.98, repro,
2009-06-17,2.17, 0.25, -2.53, 2.27, 1.54, 7.07, repro,
2009-06-18,3.51, 0.09, 2.87, 2.25, 1.54, 6.99, repro,
2009-06-19,3.86, -1.19, 1.08, 2.26, 1.53, 7.02, repro,
2009-06-20,2.95, -0.47, 6.06, 2.35, 1.65, 7.43, repro,
2009-06-21,2.24, -1.51, 6.30, 2.23, 1.53, 6.97, repro,
2009-06-22,2.31, -0.71, 6.53, 2.34, 1.63, 7.23, repro,
2009-06-23,2.89, -0.22, 8.36, 2.26, 1.54, 7.02, repro,
2009-06-24,2.85, 0.29, 8.04, 2.25, 1.53, 7.02, repro,
2009-06-25,3.63, 1.16, 4.19, 2.26, 1.54, 7.04, repro,
2009-06-26,2.82, 0.10, 1.33, 2.25, 1.55, 7.06, repro,
2009-06-27,2.44, -0.49, -0.55, 2.28, 1.56, 7.19, repro,
2009-06-28,3.71, -0.67, 2.70, 2.28, 1.57, 7.14, repro,
2009-06-29,2.51, -0.05, 8.74, 2.33, 1.59, 7.28, repro,
2009-06-30,3.26, 0.04, 5.20, 2.28, 1.56, 7.14, repro,
2009-07-01,1.81, -0.53, 3.73, 2.27, 1.57, 7.15, repro,
2009-07-02,4.45, 0.94, 2.38, 2.24, 1.54, 7.00, repro,
2009-07-03,3.54, 0.13, 2.05, 2.26, 1.54, 7.01, repro,
2009-07-04,4.15, 1.13, 1.97, 2.26, 1.54, 7.00, repro,
2009-07-05,2.81, 1.29, 6.85, 2.28, 1.55, 7.11, repro,
2009-07-06,2.41, -0.19, 7.76, 2.28, 1.56, 7.10, repro,
2009-07-07,4.03, -1.39, 0.64, 2.31, 1.58, 7.21, repro,
2009-07-08,3.08, 0.30, 5.52, 2.31, 1.57, 7.16, repro,
2009-07-09,3.22, 0.83, -0.95, 2.30, 1.57, 7.12, repro,
2009-07-10,3.31, -0.01, 0.68, 2.26, 1.54, 7.01, repro,
2009-07-11,3.05, 0.42, 10.54, 2.29, 1.59, 7.14, repro,
2009-07-12,3.29, 0.66, -1.28, 2.25, 1.55, 7.06, repro,
2009-07-13,3.47, -0.14, 1.05, 2.24, 1.55, 7.05, repro,
2009-07-14,2.52, 0.54, 0.95, 2.33, 1.61, 7.24, repro,
2009-07-15,3.17, 0.68, 3.09, 2.32, 1.63, 7.22, repro,
2009-07-16,3.86, 0.62, 3.07, 2.25, 1.54, 7.02, repro,
2009-07-17,2.57, 1.56, 5.19, 2.30, 1.57, 7.12, repro,
2009-07-18,3.00, -0.26, 3.01, 2.23, 1.54, 6.98, repro,
2009-07-19,3.40, 0.83, -0.49, 2.24, 1.54, 7.00, repro,
2009-07-20,3.88, 0.93, 0.45, 2.29, 1.57, 7.12, repro,
2009-07-21,3.77, 1.21, 4.18, 2.28, 1.56, 7.08, repro,
2009-07-22,0.63, 2.34, 11.97, 2.25, 1.54, 7.01, repro,
2009-07-23,3.14, 1.13, 7.08, 2.33, 1.62, 7.29, repro,
2009-07-24,2.81, 1.28, 2.22, 2.32, 1.63, 7.42, repro,
2009-07-25,2.92, 1.26, -0.65, 2.36, 1.61, 7.39, repro,
2009-07-26,4.14, 2.42, -2.86, 2.34, 1.59, 7.31, repro,
2009-07-27,3.71, 0.69, 5.41, 2.40, 1.61, 7.41, repro,
2009-07-28,3.04, 0.55, 4.00, 2.29, 1.61, 7.23, repro,
2009-07-29,2.80, -1.14, 9.44, 2.38, 1.68, 7.55, repro,
2009-07-30,3.12, 0.94, 14.11, 2.35, 1.63, 7.35, repro,
2009-07-31,4.80, 3.22, -6.04, 2.25, 1.55, 7.06, repro,
2009-08-01,2.91, 2.24, 4.16, 2.29, 1.58, 7.17, repro,
2009-08-02,2.40, 0.66, 4.04, 2.28, 1.58, 7.13, repro,
2009-08-03,2.49, 1.39, 3.70, 2.34, 1.63, 7.34, repro,
2009-08-04,3.92, 0.87, 0.71, 2.29, 1.58, 7.17, repro,
2009-08-05,3.53, 0.77, -4.71, 2.30, 1.57, 7.16, repro,
2009-08-06,2.18, 0.40, 4.91, 2.40, 1.66, 7.46, repro,
2009-08-07,2.38, 1.70, 0.42, 2.55, 1.84, 8.45, repro,
2009-08-08,1.76, 0.30, 3.09, 2.30, 1.58, 7.14, repro,
2009-08-09,2.36, 0.86, 2.63, 2.36, 1.63, 7.31, repro,
2009-08-10,3.68, -0.14, -0.18, 2.27, 1.56, 7.06, repro,
2009-08-11,4.24, -0.44, 1.55, 2.32, 1.59, 7.20, repro,
2009-08-12,-0.54, -3.33, 9.62, 2.29, 1.56, 7.16, repro,
2009-08-13,3.20, -0.33, 2.92, 2.25, 1.54, 6.97, repro,
2009-08-14,2.08, -0.32, 2.01, 2.28, 1.55, 7.05, repro,
2009-08-15,2.28, -0.50, 2.46, 2.38, 1.61, 7.29, repro,
2009-08-16,2.92, -1.05, -0.32, 2.33, 1.59, 7.20, repro,
2009-08-17,1.64, -0.65, 0.01, 2.33, 1.59, 7.22, repro,
2009-08-18,0.96, -0.33, 5.17, 2.32, 1.57, 7.13, repro,
2009-08-19,3.30, -0.86, 6.04, 2.31, 1.58, 7.08, repro,
2009-08-20,0.29, -0.34, -2.32, 2.29, 1.56, 7.06, repro,
2009-08-21,4.69, -1.01, 1.92, 2.35, 1.62, 7.33, repro,
2009-08-22,1.94, -1.37, -0.01, 2.35, 1.61, 7.31, repro,
2009-08-23,1.80, -0.38, 2.97, 2.40, 1.61, 7.34, repro,
2009-08-24,1.26, -0.87, 4.78, 2.30, 1.58, 7.13, repro,
2009-08-25,-0.47, 0.21, 9.87, 2.33, 1.61, 7.27, repro,
2009-08-26,3.36, 0.05, 0.98, 2.35, 1.61, 7.30, repro,
2009-08-27,1.90, 0.85, 0.05, 2.36, 1.62, 7.33, repro,
2009-08-28,1.86, -1.30, -4.07, 2.32, 1.59, 7.19, repro,
2009-08-29,1.60, -0.51, -3.23, 2.28, 1.55, 7.04, repro,
2009-08-30,1.94, -0.37, -0.71, 2.31, 1.59, 7.15, repro,
2009-08-31,1.71, -0.93, 2.22, 2.28, 1.56, 7.06, repro,
2009-09-01,1.38, -1.41, 9.79, 2.37, 1.59, 7.30, repro,
2009-09-02,3.69, 0.70, 1.96, 2.32, 1.62, 7.32, repro,
2009-09-03,1.87, -1.85, 4.79, 2.27, 1.57, 7.10, repro,
2009-09-04,0.67, 0.84, -1.30, 2.27, 1.56, 7.09, repro,
2009-09-05,4.01, -1.07, 16.94, 2.27, 1.59, 7.15, repro,
2009-09-06,1.12, -0.69, 8.97, 2.34, 1.61, 7.32, repro,
2009-09-07,1.99, 0.06, 4.29, 2.30, 1.57, 7.18, repro,
2009-09-08,0.32, -0.76, 3.87, 2.33, 1.59, 7.23, repro,
2009-09-09,1.48, -4.35, 6.20, 2.28, 1.56, 7.12, repro,
2009-09-10,1.80, -2.07, -2.03, 2.26, 1.56, 7.06, repro,
2009-09-11,0.50, -0.67, -1.46, 2.29, 1.56, 7.11, repro,
2009-09-12,0.04, -0.40, 7.95, 2.26, 1.55, 7.03, repro,
2009-09-13,1.71, -0.50, 13.16, 2.29, 1.58, 7.21, repro,
2009-09-14,-0.51, -2.22, 11.26, 2.30, 1.59, 7.19, repro,
2009-09-15,-0.65, 0.18, 4.52, 2.24, 1.56, 7.02, repro,
2009-09-16,0.37, -0.66, 0.35, 2.27, 1.56, 7.05, repro,
2009-09-17,0.41, 0.45, -0.51, 2.27, 1.57, 7.12, repro,
2009-09-18,0.69, 0.30, 3.95, 2.31, 1.61, 7.36, repro,
2009-09-19,0.64, -1.34, 7.28, 2.33, 1.64, 7.36, repro,
2009-09-20,1.57, -1.48, -0.25, 2.26, 1.56, 7.09, repro,
2009-09-21,0.15, -0.99, -1.50, 2.23, 1.56, 7.01, repro,
2009-09-22,-0.12, -1.69, 1.85, 2.41, 1.74, 7.59, repro,